Regional Weather Roundup
Issued by NWS

Home | Current Version | Previous Version | Graphics & Text | Print | Product List | Glossary On
Versions: 1 2 3 4 5 6 7 8 9 10 11 12 13 14 15 16 17 18 19 20 21 22 23 24 25 26 27 28 29 30 31 32 33 34 35 36 37 38 39 40 41 42 43 44 45 46 47 48 49 50
655
ASUS43 KFSD 282102
RWRSD

WEATHER ROUNDUP FOR SOUTH DAKOTA
NATIONAL WEATHER SERVICE SIOUX FALLS SD
400 PM CDT WED JUN 28 2017

NOTE: "FAIR" INDICATES FEW OR NO CLOUDS BELOW 12,000 FEET WITH NO
SIGNIFICANT WEATHER AND/OR OBSTRUCTIONS TO VISIBILITY.


SDZ001>005-009-010-012>017-282200-
NORTHWEST AND NORTH CENTRAL SOUTH DAKOTA

CITY           SKY/WX    TMP DP  RH WIND       PRES   REMARKS
BUFFALO          N/A     84  29  13 VRB3      29.69F
FAITH            N/A     84  36  18 NW13G21   29.73S
MOBRIDGE       SUNNY     86  31  13 NW13      29.66S
$$

SDZ012>016-024>037-041>051-057-063-072>074-282200-
SOUTHWEST AND SOUTH CENTRAL SOUTH DAKOTA

CITY           SKY/WX    TMP DP  RH WIND       PRES   REMARKS
RAPID CTY ARPT CLOUDY    80  46  30 VRB3      29.76S
PIERRE         SUNNY     84  44  24 N12G21    29.68R
CUSTER         MOSUNNY   77  38  24 SW6       29.87F
PINE RIDGE     MOSUNNY   84  50  30 S7        29.77F
SPEARFISH      FAIR      77  45  31 NE14      29.79F
WINNER         FAIR      89  52  28 NW13G23   29.70R
$$

SDZ004>011-016>023-039-040-282200-
NORTHEAST SOUTH DAKOTA

CITY           SKY/WX    TMP DP  RH WIND       PRES   REMARKS
ABERDEEN       SUNNY     84  52  33 NW15G25   29.61R
WATERTOWN      MOSUNNY   78  62  57 NW16G22   29.61R
BROOKINGS      MOSUNNY   81  64  56 NW15G22   29.61S
SISSETON         N/A     78  64  61 NW20G30   29.56R
$$

SDZ017-020-022-023-036>040-048>070-282200-
SOUTHEAST SOUTH DAKOTA

CITY           SKY/WX    TMP DP  RH WIND       PRES   REMARKS
SIOUX FALLS    MOSUNNY   84  65  52 W14G22    29.62R
HURON          SUNNY     86  56  35 NW14G28   29.62S
CHAMBERLAIN    SUNNY     86  57  37 NW15G22   29.68R
MITCHELL       MOSUNNY   88  57  34 NW18G24   29.63R
YANKTON        MOSUNNY   86  62  44 W13G24    29.65R
$$

ABBREVIATIONS USED IN REMARKS
   TC - TEMPERATURE IN CELSIUS
  WCI - WIND CHILL INDEX
   HX - HEAT INDEX
  VSB - VISIBILITY





USA.gov is the U.S. government's official web portal to all federal, state and local government web resources and services.